Location: Prairie State College
(41.5244°N, 87.6382°W)
Time: 04:24:07
(UTC-06:00)

ISS - All Passes

Search period start: 24 February 2017 00:00
Search period end: 06 March 2017 00:00
Orbit: 399 x 408 km, 51.6° (Epoch: 24 February)

Date Brightness Start Highest point End Pass type
(mag) Time Alt. Az. Time Alt. Az. Time Alt. Az.
24 Feb - 07:49:33 10° SSW 07:52:39 40° SE 07:55:47 10° ENE daylight
24 Feb - 09:26:14 10° W 09:29:11 29° NNW 09:32:09 10° NE daylight
24 Feb - 11:04:31 10° NW 11:06:27 14° N 11:08:23 10° NNE daylight
24 Feb - 12:41:23 10° NNW 12:43:51 19° NNE 12:46:20 10° ENE daylight
24 Feb - 14:17:27 10° NW 14:20:44 79° NE 14:24:00 10° ESE daylight
24 Feb - 15:55:28 10° WSW 15:56:46 12° SW 15:58:02 10° SSW daylight
25 Feb - 06:57:42 10° S 07:00:16 21° SE 07:02:51 10° E daylight
25 Feb - 08:33:21 10° WSW 08:36:33 46° NNW 08:39:45 10° NE daylight
25 Feb - 10:11:27 10° NW 10:13:37 16° N 10:15:47 10° NNE daylight
25 Feb - 11:48:55 10° NNW 11:51:04 16° N 11:53:11 10° NE daylight
25 Feb - 13:24:58 10° NW 13:28:10 44° NNE 13:31:19 10° ESE daylight
25 Feb - 15:01:48 10° W 15:04:26 22° SW 15:07:04 10° S daylight
26 Feb - 06:06:51 10° SSE 06:07:57 11° SE 06:09:03 10° ESE daylight
26 Feb - 07:40:39 10° WSW 07:43:57 83° NW 07:47:15 10° NE daylight
26 Feb - 09:18:18 10° WNW 09:20:49 20° NNW 09:23:19 10° NNE daylight
26 Feb - 10:56:18 10° NNW 10:58:13 14° N 11:00:08 10° NE daylight
26 Feb - 12:32:33 10° NW 12:35:30 28° NNE 12:38:24 10° E daylight
26 Feb - 14:08:54 10° WNW 14:12:02 43° SW 14:15:09 10° SSE daylight
27 Feb - 06:48:14 10° SW 06:51:26 51° SE 06:54:39 10° ENE daylight
27 Feb - 08:25:12 10° W 08:28:03 26° NNW 08:30:54 10° NE daylight
27 Feb - 10:03:27 10° NW 10:05:21 14° N 10:07:14 10° NNE daylight
27 Feb - 11:40:08 10° NW 11:42:44 21° NNE 11:45:19 10° ENE daylight
27 Feb - 13:16:14 10° NW 13:19:32 85° SW 13:22:49 10° SE daylight
28 Feb - 05:56:11 10° SSW 05:58:59 26° SE 06:01:48 10° ENE visible
28 Feb - 07:32:13 10° W 07:35:20 39° NNW 07:38:28 10° NE daylight
28 Feb - 09:10:24 10° NW 09:12:28 15° N 09:14:33 10° NNE daylight
28 Feb - 10:47:40 10° NNW 10:49:55 17° NNE 10:52:09 10° NE daylight
28 Feb - 12:23:42 10° NW 12:26:56 52° NNE 12:30:09 10° ESE daylight
28 Feb - 14:00:47 10° W 14:03:08 18° SW 14:05:29 10° S daylight
01 Mar - 05:04:49 10° SSE 05:06:36 14° SE 05:08:24 10° E visible
01 Mar - 06:39:24 10° WSW 06:42:41 68° NW 06:45:59 10° NE daylight
01 Mar - 08:17:13 10° WNW 08:19:37 18° NNW 08:22:01 10° NNE daylight
01 Mar - 09:55:04 10° NNW 09:57:02 15° N 09:59:01 10° NE daylight
01 Mar - 11:31:14 10° NW 11:34:15 32° NNE 11:37:16 10° E daylight
01 Mar - 13:07:41 10° WNW 13:10:43 34° SW 13:13:44 10° SSE daylight
02 Mar - 05:46:51 10° SW 05:50:06 63° SE 05:53:23 10° ENE visible
02 Mar - 07:24:03 10° WNW 07:26:48 24° NNW 07:29:32 10° NE daylight
02 Mar - 09:02:15 10° NW 09:04:08 14° N 09:06:00 10° NE daylight
02 Mar - 10:38:47 10° NW 10:41:28 23° NNE 10:44:11 10° ENE daylight
02 Mar - 12:14:55 10° WNW 12:18:12 69° SW 12:21:28 10° SE daylight
03 Mar - 04:54:37 10° SSW 04:57:35 32° SE 05:00:34 10° ENE visible
03 Mar - 06:30:58 10° W 06:34:01 34° NNW 06:37:05 10° NE daylight
03 Mar - 08:09:13 10° NW 08:11:13 15° N 08:13:13 10° NNE daylight
03 Mar - 09:46:17 10° NNW 09:48:38 18° NNE 09:50:59 10° ENE daylight
03 Mar - 11:22:19 10° NW 11:25:35 63° NNE 11:28:51 10° ESE daylight
03 Mar - 12:59:44 10° W 13:01:42 15° SW 13:03:40 10° SSW daylight
04 Mar - 04:02:56 10° S 04:05:08 17° SE 04:07:23 10° E visible
04 Mar - 05:38:04 10° WSW 05:41:19 56° NNW 05:44:34 10° NE visible
04 Mar - 07:16:01 10° WNW 07:18:18 17° NNW 07:20:35 10° NNE daylight
04 Mar - 08:53:42 10° NNW 08:55:45 15° N 08:57:46 10° NE daylight
04 Mar - 10:29:47 10° NW 10:32:54 37° NNE 10:35:59 10° E daylight
04 Mar - 12:06:24 10° WNW 12:09:16 28° SW 12:12:09 10° SSE daylight
05 Mar - 04:45:23 10° SW 04:48:40 78° SE 04:51:58 10° ENE visible
05 Mar - 06:22:48 10° WNW 06:25:25 22° NNW 06:28:04 10° NE daylight
05 Mar - 08:00:55 10° NNW 08:02:48 14° N 08:04:40 10° NE daylight
05 Mar - 09:37:18 10° NW 09:40:07 25° NNE 09:42:54 10° E daylight
05 Mar - 11:13:31 10° WNW 11:16:45 55° SW 11:19:58 10° SE daylight
